• In Kazakhstan
  • List of Countries
  • For 7 days
  • Water Temperature
  • Satellite Maps
  • Weather Map
  • News
  • Weather Widgets
  • user-avatar
    Login

    Hourly Weather Krepak

    Today, 20 February, Wednesday

    Time Temperature Precipitation Wind Pressure Humidity
    00:00 +3°C° 0 mm 4 mps 722 mmHg 82%
    01:00 +3°C° 0 mm 4 mps 722 mmHg 84%
    02:00 +3°C° 0 mm 2 mps 721 mmHg 89%
    03:00 +2°C° 0.4 mm 3 mps 721 mmHg 89%
    04:00 +2°C° 0.4 mm 3 mps 721 mmHg 90%
    05:00 +1°C° 0.4 mm 4 mps 722 mmHg 90%
    06:00 +1°C° 0 mm 4 mps 722 mmHg 91%
    07:00 0°C° 0 mm 4 mps 722 mmHg 91%
    08:00 0°C° 0 mm 4 mps 722 mmHg 92%
    09:00 +1°C° 0 mm 5 mps 722 mmHg 88%
    10:00 +1°C° 0 mm 5 mps 723 mmHg 84%
    11:00 +2°C° 0 mm 6 mps 723 mmHg 79%
    12:00 +2°C° 0.1 mm 6 mps 723 mmHg 75%
    13:00 +3°C° 0.1 mm 6 mps 723 mmHg 72%
    14:00 +3°C° 0 mm 6 mps 723 mmHg 65%
    15:00 +3°C° 0.1 mm 6 mps 724 mmHg 65%
    16:00 +3°C° 0.1 mm 5 mps 724 mmHg 65%
    17:00 +3°C° 0.1 mm 5 mps 724 mmHg 66%
    18:00 +3°C° 0 mm 4 mps 724 mmHg 69%
    19:00 +1°C° 0 mm 4 mps 724 mmHg 73%
    20:00 +2°C° 0 mm 3 mps 725 mmHg 77%
    21:00 +1°C° 0 mm 4 mps 725 mmHg 79%
    22:00 +1°C° 0 mm 4 mps 725 mmHg 80%
    23:00 +1°C° 0 mm 4 mps 726 mmHg 82%

    Tomorrow, 21 February, Thursday

    Time Temperature Precipitation Wind Pressure Humidity
    00:00 0°C° 0 mm 4 mps 726 mmHg 83%
    01:00 0°C° 0 mm 4 mps 726 mmHg 85%
    02:00 0°C° 0 mm 4 mps 726 mmHg 86%
    03:00 -1°C° 0 mm 4 mps 727 mmHg 88%
    04:00 0°C° 0 mm 3 mps 727 mmHg 89%
    05:00 0°C° 0 mm 3 mps 727 mmHg 90%
    06:00 0°C° 0 mm 3 mps 727 mmHg 89%
    07:00 -1°C° 0 mm 4 mps 727 mmHg 88%
    08:00 -1°C° 0 mm 4 mps 727 mmHg 87%
    09:00 0°C° 0 mm 4 mps 727 mmHg 83%
    10:00 +1°C° 0 mm 4 mps 728 mmHg 79%
    11:00 +2°C° 0 mm 5 mps 728 mmHg 74%
    12:00 +3°C° 0 mm 5 mps 727 mmHg 72%
    13:00 +5°C° 0 mm 5 mps 727 mmHg 69%
    14:00 +6°C° 0 mm 5 mps 727 mmHg 66%
    15:00 +5°C° 0 mm 4 mps 727 mmHg 67%
    16:00 +5°C° 0 mm 4 mps 726 mmHg 68%
    17:00 +5°C° 0 mm 3 mps 726 mmHg 69%
    18:00 +5°C° 0 mm 3 mps 726 mmHg 71%
    19:00 +4°C° 0 mm 4 mps 726 mmHg 73%
    20:00 +4°C° 0 mm 4 mps 726 mmHg 75%
    21:00 +3°C° 0.3 mm 4 mps 725 mmHg 78%
    22:00 +3°C° 0.3 mm 4 mps 725 mmHg 80%
    23:00 +2°C° 0.3 mm 5 mps 724 mmHg 83%

    Day after tomorrow, 22 February, Friday

    Time Temperature Precipitation Wind Pressure Humidity
    00:00 +2°C° 0.8 mm 5 mps 724 mmHg 84%
    01:00 +2°C° 0.8 mm 5 mps 724 mmHg 85%
    02:00 +2°C° 0.8 mm 5 mps 723 mmHg 86%
    03:00 +2°C° 0.6 mm 5 mps 723 mmHg 87%
    04:00 +2°C° 0.6 mm 5 mps 723 mmHg 88%
    05:00 +2°C° 0.6 mm 5 mps 722 mmHg 89%
    06:00 +2°C° 1.1 mm 5 mps 723 mmHg 91%
    07:00 +2°C° 1.1 mm 5 mps 723 mmHg 92%
    08:00 +1°C° 1.1 mm 4 mps 723 mmHg 94%
    09:00 -1°C° 0.7 mm 5 mps 724 mmHg 91%
    10:00 -4°C° 0.7 mm 5 mps 725 mmHg 88%
    11:00 -6°C° 0.7 mm 6 mps 726 mmHg 85%
    12:00 -5°C° 0.1 mm 6 mps 727 mmHg 79%
    13:00 -5°C° 0.1 mm 6 mps 728 mmHg 74%
    14:00 -5°C° 0.1 mm 6 mps 729 mmHg 68%
    15:00 -5°C° 0 mm 6 mps 730 mmHg 66%
    16:00 -6°C° 0 mm 6 mps 730 mmHg 65%
    17:00 -8°C° 0 mm 6 mps 731 mmHg 63%
    18:00 -7°C° 0 mm 5 mps 732 mmHg 64%
    19:00 -8°C° 0 mm 5 mps 732 mmHg 65%
    20:00 -10°C° 0 mm 5 mps 733 mmHg 66%
    21:00 -10°C° 0 mm 5 mps 734 mmHg 63%
    22:00 -10°C° 0 mm 5 mps 734 mmHg 60%
    23:00 -9°C° 0 mm 4 mps 735 mmHg 57%

    23 February, Saturday

    Time Temperature Precipitation Wind Pressure Humidity
    00:00 -9°C° 0 mm 4 mps 735 mmHg 55%
    01:00 -9°C° 0 mm 4 mps 735 mmHg 54%
    02:00 -9°C° 0 mm 4 mps 736 mmHg 53%
    03:00 -10°C° 0 mm 4 mps 736 mmHg 53%
    04:00 -10°C° 0 mm 4 mps 736 mmHg 54%
    05:00 -10°C° 0 mm 4 mps 736 mmHg 55%
    06:00 -10°C° 0 mm 4 mps 736 mmHg 56%
    07:00 -10°C° 0 mm 4 mps 736 mmHg 57%
    08:00 -9°C° 0 mm 3 mps 737 mmHg 57%
    09:00 -10°C° 0 mm 4 mps 737 mmHg 55%
    10:00 -9°C° 0 mm 4 mps 737 mmHg 52%
    11:00 -8°C° 0 mm 4 mps 738 mmHg 49%
    12:00 -8°C° 0 mm 4 mps 738 mmHg 47%
    13:00 -7°C° 0 mm 4 mps 738 mmHg 44%
    14:00 -6°C° 0 mm 3 mps 738 mmHg 42%
    15:00 -6°C° 0 mm 3 mps 738 mmHg 42%
    16:00 -6°C° 0 mm 3 mps 738 mmHg 41%
    17:00 -6°C° 0 mm 3 mps 737 mmHg 41%
    18:00 -6°C° 0 mm 3 mps 738 mmHg 45%
    19:00 -6°C° 0 mm 2 mps 738 mmHg 49%
    20:00 -6°C° 0 mm 1 mps 738 mmHg 52%
    21:00 -6°C° 0 mm 1 mps 738 mmHg 53%
    22:00 -6°C° 0 mm 1 mps 738 mmHg 53%
    23:00 -6°C° 0 mm 1 mps 738 mmHg 54%

    24 February, Sunday

    Time Temperature Precipitation Wind Pressure Humidity
    00:00 -6°C° 0 mm 1 mps 738 mmHg 54%
    01:00 -6°C° 0 mm 1 mps 737 mmHg 54%
    02:00 -6°C° 0 mm 1 mps 737 mmHg 54%
    03:00 -6°C° 0 mm 1 mps 737 mmHg 54%
    04:00 -6°C° 0 mm 1 mps 737 mmHg 54%
    05:00 -6°C° 0 mm 1 mps 736 mmHg 53%
    06:00 -6°C° 0 mm 1 mps 736 mmHg 52%
    07:00 -6°C° 0 mm 1 mps 736 mmHg 50%
    08:00 -6°C° 0 mm 1 mps 736 mmHg 49%
    09:00 -5°C° 0 mm 2 mps 736 mmHg 44%
    10:00 -4°C° 0 mm 2 mps 736 mmHg 39%
    11:00 -4°C° 0 mm 3 mps 736 mmHg 34%
    12:00 -2°C° 0 mm 3 mps 736 mmHg 35%
    13:00 -1°C° 0 mm 3 mps 735 mmHg 35%
    14:00 0°C° 0 mm 3 mps 735 mmHg 35%
    15:00 0°C° 0 mm 3 mps 734 mmHg 38%
    16:00 0°C° 0 mm 3 mps 734 mmHg 40%
    17:00 0°C° 0 mm 3 mps 734 mmHg 43%
    18:00 0°C° 0 mm 3 mps 733 mmHg 46%
    19:00 -1°C° 0 mm 3 mps 733 mmHg 49%
    20:00 -1°C° 0 mm 3 mps 733 mmHg 52%
    21:00 -2°C° 0.1 mm 4 mps 733 mmHg 55%
    22:00 -2°C° 0.1 mm 4 mps 732 mmHg 59%
    23:00 -2°C° 0.1 mm 4 mps 732 mmHg 62%

    25 February, Monday

    Time Temperature Precipitation Wind Pressure Humidity
    00:00 -2°C° 0 mm 4 mps 732 mmHg 67%
    01:00 -2°C° 0 mm 5 mps 731 mmHg 71%
    02:00 -4°C° 0 mm 5 mps 731 mmHg 75%
    03:00 -2°C° 0.1 mm 5 mps 730 mmHg 80%
    04:00 -3°C° 0.1 mm 6 mps 730 mmHg 85%
    05:00 -3°C° 0.1 mm 6 mps 730 mmHg 90%
    06:00 -3°C° 0.1 mm 6 mps 730 mmHg 90%
    07:00 -2°C° 0.1 mm 5 mps 730 mmHg 91%
    08:00 -2°C° 0.1 mm 5 mps 730 mmHg 91%
    09:00 -2°C° 0.1 mm 5 mps 730 mmHg 87%
    10:00 -3°C° 0.1 mm 6 mps 730 mmHg 84%
    11:00 -3°C° 0.1 mm 7 mps 730 mmHg 80%
    12:00 -2°C° 0 mm 7 mps 730 mmHg 76%
    13:00 -1°C° 0 mm 7 mps 730 mmHg 71%
    14:00 -1°C° 0 mm 7 mps 730 mmHg 67%
    15:00 -1°C° 0 mm 7 mps 730 mmHg 67%
    16:00 -1°C° 0 mm 6 mps 729 mmHg 66%
    17:00 -1°C° 0 mm 6 mps 729 mmHg 66%
    18:00 -2°C° 0.1 mm 6 mps 729 mmHg 69%
    19:00 -1°C° 0.1 mm 5 mps 730 mmHg 72%
    20:00 -2°C° 0.1 mm 5 mps 730 mmHg 75%
    21:00 -2°C° 0.1 mm 5 mps 730 mmHg 77%
    22:00 -2°C° 0.1 mm 5 mps 730 mmHg 78%
    23:00 -4°C° 0.1 mm 5 mps 731 mmHg 80%
    Show more